This is the latest recevied weather packets stored in our database for station/object IK1QAD-3. If no packets are shown the sender has not sent any weather packets the latest 1 day(s).
| Time | Temp. | Humidity | Pressure | Rain* | Wind** | Luminosity | Snow |
|---|---|---|---|---|---|---|---|
| 1778048919 | 14.44° C | 93% | 1007.1 hPa | 0 mm | - | - | - |
| 1778048615 | 13.89° C | 94% | 1007 hPa | 0 mm | - | - | - |
| 1778048309 | 13.89° C | 95% | 1007 hPa | 0 mm | - | - | - |
| 1778048008 | 13.89° C | 95% | 1007.1 hPa | 0 mm | - | - | - |
| 1778047723 | 13.33° C | 94% | 1007 hPa | 0 mm | - | - | - |
| 1778047418 | 13.33° C | 94% | 1007.2 hPa | 0 mm | - | - | - |
| 1778047114 | 13.33° C | 94% | 1007.2 hPa | 0 mm | - | - | - |
| 1778046808 | 13.33° C | 94% | 1007.2 hPa | 1.02 mm | - | - | - |
| 1778046504 | 13.33° C | 94% | 1007.1 hPa | 1.02 mm | - | - | - |
| 1778046219 | 13.33° C | 93% | 1007.1 hPa | 2.03 mm | - | - | - |
| 1778045912 | 13.33° C | 94% | 1006.9 hPa | 4.06 mm | - | - | - |
| 1778045611 | 13.33° C | 94% | 1007.1 hPa | 5.08 mm | - | - | - |
| 1778045304 | 13.33° C | 94% | 1007.1 hPa | 6.1 mm | - | - | - |
| 1778045021 | 13.33° C | 94% | 1007.2 hPa | 6.1 mm | - | - | - |
| 1778044718 | 13.33° C | 94% | 1007.4 hPa | 6.1 mm | - | - | - |
| 1778044411 | 13.33° C | 93% | 1007.5 hPa | 6.1 mm | - | - | - |
| 1778044110 | 13.33° C | 93% | 1007.9 hPa | 6.1 mm | - | - | - |
| 1778043824 | 13.33° C | 93% | 1007.8 hPa | 6.1 mm | - | - | - |
| 1778043516 | 13.33° C | 93% | 1007.7 hPa | 6.1 mm | - | - | - |
| 1778043212 | 13.33° C | 93% | 1007.6 hPa | 5.08 mm | - | - | - |
| 1778042619 | 13.33° C | 92% | 1008.1 hPa | 3.05 mm | - | - | - |
| 1778042314 | 13.33° C | 92% | 1008.2 hPa | 2.03 mm | - | - | - |
| 1778042014 | 13.33° C | 93% | 1008.1 hPa | 1.02 mm | - | - | - |
| 1778041421 | 13.33° C | 94% | 1008.1 hPa | 0 mm | - | - | - |
| 1778041121 | 13.33° C | 94% | 1007.9 hPa | 0 mm | - | - | - |
* Rain latest hour (hover to see other rain measurements)
** Current wind speed in m/s (hover to see current wind gust speed)